Hinckley, MN

5:41 AM CST on November 19, 2017 (GMT -0600)
Hinckley

Weather History for K04W - September, 2013

Change the Weather History Date:

Thursday, September 26, 2013

  Actual Average (KJMR) Record (KJMR)
Temperature  
Mean Temperature 64 °F -  
Max Temperature 77 °F 68 °F 82 °F (1974)
Min Temperature 50 °F 39 °F 10 °F (2004)
Degree Days  
Heating Degree Days 2    
Growing Degree Days 14 (Base 50)    
Moisture  
Dew Point 54 °F    
Average Humidity 77    
Maximum Humidity 100    
Minimum Humidity 50    
Precipitation  
Precipitation 0.00 in - - ()
Sea Level Pressure  
Sea Level Pressure 29.92 in    
Wind  
Wind Speed 7 mph (ESE)    
Max Wind Speed 18 mph    
Max Gust Speed 25 mph    
Visibility 10 miles    
Events      
Averages and records for this station are not official NWS values.
T = Trace of Precipitation, MM = Missing Value Source: NWS Daily Summary

Daily Weather History Graph

Daily Weather History Graph

Search for Another Location

Airport or City:

Trip Planner

Search our weather history database for the weather conditions in past years. The results will help you decide how hot, cold, wet, or windy it might be!

Date:

Astronomy

Sep. 26, 2013 Rise Set
Actual Time 7:03 AM CDT 7:00 PM CDT
Civil Twilight 6:34 AM CDT 7:30 PM CDT
Nautical Twilight 5:59 AM CDT 8:05 PM CDT
Astronomical Twilight 5:23 AM CDT 8:40 PM CDT
Moon 11:43 PM CDT (9/26) 2:12 PM CDT (9/26)
Length of Visible Light 12h 56m
Length of Day
11h 56m
Waning Gibbous, 54% of the Moon is Illuminated
Sep 26
Waning Gibbous
Sep 26
Last Quarter
Oct 4
New
Oct 11
First Quarter
Oct 18
Full

Hourly Weather History & Observations

Time (CDT) Temp. Dew Point Humidity Pressure Visibility Wind Dir Wind Speed Gust Speed Precip Events Conditions
12:15 AM 53.6 °F 50.0 °F 88% 29.95 in 10.0 mi East 6.9 mph - N/A   Clear
12:36 AM 53.6 °F 50.0 °F 88% 29.95 in 10.0 mi East 5.8 mph - N/A   Clear
12:56 AM 51.8 °F 50.0 °F 94% 29.95 in 10.0 mi East 4.6 mph - N/A   Clear
1:15 AM 51.8 °F 48.2 °F 88% 29.95 in 10.0 mi East 5.8 mph - N/A   Clear
1:36 AM 51.8 °F 50.0 °F 94% 29.95 in 10.0 mi East 3.5 mph - N/A   Clear
1:55 AM 51.8 °F 48.2 °F 88% 29.96 in 10.0 mi East 3.5 mph - N/A   Clear
2:16 AM 51.8 °F 48.2 °F 88% 29.96 in 10.0 mi Calm Calm - N/A   Clear
2:36 AM 51.8 °F 48.2 °F 88% 29.95 in 10.0 mi East 3.5 mph - N/A   Clear
2:55 AM 51.8 °F 50.0 °F 94% 29.95 in 10.0 mi East 4.6 mph - N/A   Clear
3:16 AM 51.8 °F 50.0 °F 94% 29.94 in 10.0 mi East 4.6 mph - N/A   Clear
3:36 AM 51.8 °F 50.0 °F 94% 29.94 in 10.0 mi East 3.5 mph - N/A   Clear
3:56 AM 50.0 °F 50.0 °F 100% 29.93 in 10.0 mi East 5.8 mph - N/A   Clear
4:16 AM 51.8 °F 50.0 °F 94% 29.93 in 10.0 mi East 5.8 mph - N/A   Clear
4:35 AM 51.8 °F 50.0 °F 94% 29.93 in 10.0 mi East 4.6 mph - N/A   Clear
4:56 AM 50.0 °F 50.0 °F 100% 29.93 in 10.0 mi East 3.5 mph - N/A   Clear
5:16 AM 50.0 °F 50.0 °F 100% 29.93 in 10.0 mi East 4.6 mph - N/A   Clear
5:36 AM 50.0 °F 50.0 °F 100% 29.94 in 10.0 mi Calm Calm - N/A   Clear
5:56 AM 50.0 °F 50.0 °F 100% 29.94 in 10.0 mi East 4.6 mph - N/A   Clear
6:16 AM 50.0 °F 48.2 °F 94% 29.94 in 10.0 mi ENE 3.5 mph - N/A   Scattered Clouds
6:36 AM 50.0 °F 50.0 °F 100% 29.95 in 7.0 mi ENE 3.5 mph - N/A   Mostly Cloudy
6:55 AM 50.0 °F 50.0 °F 100% 29.95 in 7.0 mi ENE 3.5 mph - N/A   Overcast
7:16 AM 50.0 °F 50.0 °F 100% 29.95 in 7.0 mi East 4.6 mph - N/A   Mostly Cloudy
7:36 AM 51.8 °F 50.0 °F 94% 29.96 in 7.0 mi East 4.6 mph - N/A   Scattered Clouds
7:56 AM 51.8 °F 50.0 °F 94% 29.96 in 10.0 mi East 3.5 mph - N/A   Scattered Clouds
8:16 AM 53.6 °F 51.8 °F 94% 29.96 in 10.0 mi East 4.6 mph - N/A   Overcast
8:36 AM 53.6 °F 51.8 °F 94% 29.96 in 10.0 mi East 5.8 mph - N/A   Overcast
8:56 AM 53.6 °F 51.8 °F 94% 29.96 in 10.0 mi East 9.2 mph - N/A   Overcast
9:16 AM 55.4 °F 51.8 °F 88% 29.96 in 10.0 mi ESE 5.8 mph - N/A   Mostly Cloudy
9:36 AM 59.0 °F 51.8 °F 77% 29.96 in 10.0 mi ESE 8.1 mph - N/A   Scattered Clouds
9:56 AM 60.8 °F 53.6 °F 77% 29.96 in 10.0 mi SE 6.9 mph - N/A   Clear
10:16 AM 62.6 °F 53.6 °F 72% 29.96 in 10.0 mi SSE 8.1 mph - N/A   Clear
10:36 AM 64.4 °F 53.6 °F 68% 29.96 in 10.0 mi SSE 6.9 mph 17.3 mph N/A   Clear
10:56 AM 64.4 °F 53.6 °F 68% 29.96 in 10.0 mi SSE 9.2 mph - N/A   Clear
11:16 AM 66.2 °F 53.6 °F 64% 29.96 in 10.0 mi SSE 10.4 mph - N/A   Clear
11:36 AM 68.0 °F 53.6 °F 60% 29.95 in 10.0 mi SSE 10.4 mph - N/A   Clear
11:56 AM 68.0 °F 53.6 °F 60% 29.94 in 10.0 mi SE 10.4 mph 17.3 mph N/A   Scattered Clouds
12:16 PM 69.8 °F 55.4 °F 60% 29.94 in 10.0 mi SE 10.4 mph 17.3 mph N/A   Clear
12:36 PM 71.6 °F 55.4 °F 57% 29.93 in 10.0 mi SE 11.5 mph - N/A   Clear
12:56 PM 71.6 °F 55.4 °F 57% 29.93 in 10.0 mi SSE 9.2 mph 17.3 mph N/A   Clear
1:16 PM 71.6 °F 55.4 °F 57% 29.92 in 10.0 mi SE 11.5 mph 19.6 mph N/A   Clear
1:36 PM 73.4 °F 57.2 °F 57% 29.91 in 10.0 mi SE 12.7 mph 19.6 mph N/A   Clear
1:56 PM 75.2 °F 59.0 °F 57% 29.91 in 10.0 mi SE 12.7 mph 21.9 mph N/A   Clear
2:16 PM 73.4 °F 57.2 °F 57% 29.89 in 10.0 mi SE 16.1 mph 24.2 mph N/A   Clear
2:36 PM 75.2 °F 59.0 °F 57% 29.89 in 10.0 mi SSE 12.7 mph 20.7 mph N/A   Clear
2:56 PM 77.0 °F 59.0 °F 54% 29.89 in 10.0 mi SSE 12.7 mph 20.7 mph N/A   Clear
3:16 PM 77.0 °F 59.0 °F 54% 29.89 in 10.0 mi SSE 18.4 mph 21.9 mph N/A   Clear
3:37 PM 77.0 °F 57.2 °F 50% 29.88 in 10.0 mi SSE 13.8 mph 25.3 mph N/A   Clear
3:56 PM 77.0 °F 57.2 °F 50% 29.88 in 10.0 mi SE 13.8 mph 23.0 mph N/A   Clear
4:16 PM 77.0 °F 57.2 °F 50% 29.87 in 10.0 mi SE 16.1 mph 20.7 mph N/A   Clear
4:36 PM 77.0 °F 59.0 °F 54% 29.87 in 10.0 mi SE 15.0 mph 20.7 mph N/A   Clear
4:56 PM 77.0 °F 59.0 °F 54% 29.87 in 10.0 mi SE 13.8 mph 23.0 mph N/A   Clear
5:16 PM 75.2 °F 59.0 °F 57% 29.88 in 10.0 mi SE 10.4 mph - N/A   Clear
5:36 PM 75.2 °F 59.0 °F 57% 29.88 in 10.0 mi SE 10.4 mph 20.7 mph N/A   Clear
5:56 PM 73.4 °F 59.0 °F 61% 29.88 in 10.0 mi SE 9.2 mph 18.4 mph N/A   Clear
6:17 PM 73.4 °F 59.0 °F 61% 29.88 in 10.0 mi ESE 6.9 mph 16.1 mph N/A   Clear
6:36 PM 71.6 °F 59.0 °F 64% 29.88 in 10.0 mi ESE 8.1 mph - N/A   Clear
6:56 PM 71.6 °F 59.0 °F 64% 29.88 in 10.0 mi ESE 9.2 mph - N/A   Clear
7:16 PM 69.8 °F 59.0 °F 68% 29.88 in 10.0 mi ESE 8.1 mph - N/A   Clear
7:36 PM 69.8 °F 59.0 °F 68% 29.87 in 10.0 mi ESE 9.2 mph - N/A   Clear
7:57 PM 68.0 °F 59.0 °F 73% 29.88 in 10.0 mi ESE 9.2 mph - N/A   Clear
8:16 PM 68.0 °F 59.0 °F 73% 29.88 in 10.0 mi ESE 8.1 mph - N/A   Clear
8:36 PM 68.0 °F 59.0 °F 73% 29.89 in 10.0 mi ESE 9.2 mph - N/A   Clear
8:57 PM 68.0 °F 57.2 °F 68% 29.89 in 10.0 mi ESE 5.8 mph - N/A   Clear
9:16 PM 66.2 °F 57.2 °F 73% 29.90 in 10.0 mi ESE 5.8 mph - N/A   Clear
9:36 PM 66.2 °F 57.2 °F 73% 29.91 in 10.0 mi ESE 4.6 mph - N/A   Clear
9:57 PM 64.4 °F 57.2 °F 77% 29.91 in 10.0 mi ESE 4.6 mph - N/A   Clear
10:16 PM 64.4 °F 59.0 °F 83% 29.92 in 10.0 mi SE 5.8 mph - N/A   Clear
10:37 PM 64.4 °F 59.0 °F 83% 29.92 in 10.0 mi SE 4.6 mph - N/A   Clear
10:56 PM 64.4 °F 59.0 °F 83% 29.92 in 10.0 mi SE 5.8 mph - N/A   Clear
11:16 PM 64.4 °F 59.0 °F 83% 29.92 in 10.0 mi SE 3.5 mph - N/A   Clear
11:37 PM 64.4 °F 59.0 °F 83% 29.93 in 10.0 mi SE 3.5 mph - N/A   Clear
11:56 PM 64.4 °F 59.0 °F 83% 29.93 in 10.0 mi SE 5.8 mph - N/A   Clear